User: anonymous   Login
Location: ????????
(55.0097°N, 38.5678°E)
Time: 05:20:14
(UTC+00:00)
Language:

Cosmos 2369 Rocket - Orbit

View from above orbital plane
View from above orbital plane
View from above satellite
View from above satellite

Ground track
Ground track

The orbit data is extracted from the following two-line orbital elements,

1 26070U 00006B   24164.89440720 -.00000011  00000-0  18787-4 0  9990
2 26070  71.0032 352.4335 0014565  64.5430 295.7199 14.15643597258718
Epoch (UTC): 12 June 2024 21:27:56
Eccentricity: 0.0014565
inclination: 71.0032°
perigee height: 829 km
apogee height: 850 km
right ascension of ascending node: 352.4335°
argument of perigee: 64.5430°
revolutions per day: 14.15643597
mean anomaly at epoch: 295.7199°
orbit number at epoch: 25871

The dashed part of the orbit path shows where the satellite is in the earth's shadow,  

DLR